Regional Weather Roundup
Issued by NWS Little Rock, AR

Home | Current Version | Previous Version | Graphics & Text | Print | Product List | Glossary On
Versions: 1 2 3 4 5 6 7 8 9 10 11 12 13 14 15 16 17 18 19 20 21 22 23 24 25 26 27 28 29 30 31 32 33 34 35 36 37 38 39 40 41 42 43 44 45 46 47 48 49 50
000
ASUS44 KLZK 010305
RWRLZK

WEATHER ROUNDUP FOR ARKANSAS
NATIONAL WEATHER SERVICE LITTLE ROCK AR
1000 PM CDT THU JUL 31 2014

NOTE: "FAIR" INDICATES FEW OR NO CLOUDS BELOW 12,000 FEET WITH NO
SIGNIFICANT WEATHER AND/OR OBSTRUCTIONS TO VISIBILITY.

ARZ001-003-010-029-010400-
NORTHWEST ARKANSAS

CITY           SKY/WX    TMP DP  RH WIND       PRES   REMARKS
FAYETTEVILLE   CLOUDY    68  66  93 SW3       30.08R
FORT SMITH     CLOUDY    69  66  90 E5        30.05R
HARRISON       CLOUDY    67  66  97 SE6       30.08S
BENTONVILLE    PTCLDY    68  64  88 CALM      30.09R
ROGERS         MOCLDY    67  66  97 CALM      30.09R
SILOAM SPGS    CLOUDY    68  63  83 N3        30.09R
HIGHFILL       CLOUDY    68  67  96 CALM      30.08R
$$

ARZ004-005-016-010400-
NORTH CENTRAL ARKANSAS

CITY           SKY/WX    TMP DP  RH WIND       PRES   REMARKS
BATESVILLE     CLOUDY    70  66  88 CALM      30.07R
FLIPPIN        PTCLDY    66  64  94 CALM      30.08R
MTN HOME       CLOUDY    67  66  97 CALM      30.07R
$$

ARZ040-041-010400-
WEST CENTRAL ARKANSAS

CITY           SKY/WX    TMP DP  RH WIND       PRES   REMARKS
MENA           CLOUDY    68  66  94 E5        30.07R
MOUNT IDA      CLOUDY    66  64  93 CALM      30.05R
$$

ARZ009-017-025-026-028-010400-
NORTHEAST ARKANSAS

CITY           SKY/WX    TMP DP  RH WIND       PRES   REMARKS
CORNING        CLOUDY    70  70 100 CALM      30.07S
JONESBORO      CLOUDY    70  67  90 CALM      30.06R
NEWPORT        CLOUDY    70  67  90 CALM      30.08R
WALNUT RIDGE   MOCLDY    72  66  83 S3        30.06R
BLYTHEVILLE    CLOUDY    71  68  90 CALM      30.07R
$$

ARZ022-023-033-042-044-010400-
CENTRAL ARKANSAS

CITY           SKY/WX    TMP DP  RH WIND       PRES   REMARKS
LITTLE ROCK    CLOUDY    69  64  84 E3        30.06S
N LITTLE ROCK  CLOUDY    68  68  99 SE5       30.06S
SEARCY         MOCLDY    69  67  93 CALM      30.08R
HOT SPRINGS    CLOUDY    67  65  93 E5        30.07R
RUSSELLVILLE   CLOUDY    70  67  90 CALM      30.06R
CLINTON        MOCLDY    70  68  94 CALM      30.08R
$$

ARZ036-010400-
EAST ARKANSAS

CITY           SKY/WX    TMP DP  RH WIND       PRES   REMARKS
WEST MEMPHIS   CLOUDY    69  69 100 NW3       30.05S
$$

ARZ050-053-066-070-073-010400-
SOUTHWEST ARKANSAS

CITY           SKY/WX    TMP DP  RH WIND       PRES   REMARKS
ARKADELPHIA    CLOUDY    68  67  96 NE3       30.05R
CAMDEN         MOCLDY    68  64  88 CALM      30.03S
TEXARKANA      CLOUDY    68  68 100 NE7       30.01R FOG
EL DORADO      CLOUDY    70  68  93 NE5       30.03R
DE QUEEN       CLOUDY    67  66  97 E8        30.02R FOG
$$

ARZ056-057-069-010400-
SOUTHEAST ARKANSAS

CITY           SKY/WX    TMP DP  RH WIND       PRES   REMARKS
PINE BLUFF     CLOUDY    71  67  87 NE5       30.06R
STUTTGART      CLOUDY    70  64  83 NE7       30.07S
MONTICELLO     CLOUDY    71  69  93 NE3       30.03S FOG

$$





USA.gov is the U.S. government's official web portal to all federal, state and local government web resources and services.